Location: Observatoire
(46.1952°N, 5.3391°E)
Time: 01:40:12
(UTC+01:00)

Explorer 7 - Pass Details

Date: 23 February 2026
Orbit: 430 x 541 km, 50.2° (Epoch: 10 March)

Event Time Altitude Azimuth Distance (km) Brightness Sun altitude
Rises 20:15:14 0° 284° (WNW) 2,525 11.7 -21.3°
Reaches altitude 10° 20:17:59 10° 263° (W) 1,668 10.3 -21.8°
Maximum altitude 20:20:22 16° 223° (SW) 1,345 9.2 -22.2°
Enters shadow 20:22:22 12° 190° (S) 1,595 9.2 -22.5°
Drops below altitude 10° 20:22:49 10° 184° (S) 1,705 - -22.6°
Sets 20:25:40 0° 163° (SSE) 2,611 - -23.1°
